ONEWEB-0541 (55142 NORAD) Tracking and Keplerian Element Data

This shows tracking and keplerian element data for the satellite.

Feedback or suggestion? Click here.




ElementValue
Catalog55142
NameONEWEB-0541
Epoch Orbit1110
Epoch Day85.25001157
Epoch Year2023
RAAN256.3494
Inclination87.2871
Eccentricity0.0009312
Argument of Perigee328.1854
Mean Anonmoly226.0227
Mean Motion14.02398857
Decay Rate-0.00981785
L11 55142U 23004C 23085.25001157 -.00981785 00000+0 -67805+0 0 9999
L22 55142 87.2871 256.3494 0009312 328.1854 226.0227 14.02398857 11102



Live tracking and technical data element details for ONEWEB-0541 (NORAD 55142). ONEWEB-0541 can be tracked NOW for your location showing map with azimuth and elevation plus other details from your city location.







IsCatalogInMostPopularTable: catalog: 55142, numindb: 8
Update: records affected: 1



GetName: 55142 ONEWEB-0541

Hit Count: updated at: Mon, 27 Mar 2023 07:00:29 GMT